LKPD Weather Reports


time (UTC)temp
C
wind
direction
speed
KPH
gust
KPH
rain 1hr
cm
rain 24hr
cm
rain mn
cm
humidity
%
barometer
mb
20260507033210 12 0 1.6 0.0 0.00 0.00 0.00 93 1008.0
20260507031942 12 0 0.0 0.0 0.00 0.00 0.00 93
20260507030224 12 0 0.0 0.0 0.00 0.00 0.00 93 1008.0
20260507023209 11 270 11.3 0.0 0.00 0.00 0.00 100 1008.0
20260507021941 12 270 11.3 0.0 0.00 0.00 0.00 93
20260507020224 11 270 11.3 0.0 0.00 0.00 0.00 93 1008.0
20260507013209 12 200 4.8 0.0 0.00 0.00 0.00 93 1007.0
20260507012041 12 210 8.0 0.0 0.00 0.00 0.00 93
20260507010226 12 220 8.0 0.0 0.00 0.00 0.00 93 1007.0
20260507003209 12 0 8.0 0.0 0.00 0.00 0.00 93 1006.0
20260507001942 12 220 8.0 0.0 0.00 0.00 0.00 93
20260507000219 12 270 9.7 0.0 0.00 0.00 0.00 93 1007.0
20260506233210 13 20 8.0 0.0 0.00 0.00 0.00 87 1006.0
20260506231942 13 350 8.0 0.0 0.00 0.00 0.00 87
20260506230225 13 330 8.0 0.0 0.00 0.00 0.00 82 1006.0
20260506223209 13 280 24.1 0.0 0.00 0.00 0.00 87 1006.0
20260506222142 13 270 29.0 0.0 0.00 0.00 0.00 87
20260506220224 12 0 3.2 0.0 0.00 0.00 0.00 87 1005.0
20260506214304 12 280 9.7 0.0 0.00 0.00 0.00 87 1006.0
20260506213210 12 310 9.7 0.0 0.00 0.00 0.00 87 1005.0
20260506212012 12 310 4.8 0.0 0.00 0.00 0.00 87 1005.0
20260506211942 12 310 11.3 0.0 0.00 0.00 0.00 87
20260506211703 12 310 8.0 0.0 0.00 0.00 0.00 87 1005.0
20260506210219 12 0 1.6 0.0 0.00 0.00 0.00 87 1005.0
20260506203208 12 140 9.7 0.0 0.00 0.00 0.00 87 1005.0
20260506202026 12 140 11.3 0.0 0.00 0.00 0.00 87
20260506200224 12 120 8.0 0.0 0.00 0.00 0.00 87 1005.0
20260506193217 13 110 4.8 0.0 0.00 0.00 0.00 82 1005.0
20260506192133 13 70 8.0 0.0 0.00 0.00 0.00 82
20260506190239 13 60 8.0 0.0 0.00 0.00 0.00 82 1004.0
20260506183231 15 360 8.0 0.0 0.00 0.00 0.00 82 1004.0
20260506182403 15 30 11.3 0.0 0.00 0.00 0.00 77 1004.0
20260506182033 15 360 8.0 0.0 0.00 0.00 0.00 82
20260506180233 17 330 9.7 0.0 0.00 0.00 0.00 72 1005.0
20260506173902 17 330 12.9 0.0 0.00 0.00 0.00 72 1004.0
20260506173224 17 60 9.7 0.0 0.00 0.00 0.00 82 1004.0
20260506171941 17 70 11.3 0.0 0.00 0.00 0.00 77
20260506171808 17 0 8.0 0.0 0.00 0.00 0.00 82 1005.0
20260506170219 17 60 9.7 0.0 0.00 0.00 0.00 82 1004.0
20260506163217 17 60 12.9 0.0 0.00 0.00 0.00 77 1004.0
20260506162158 17 90 14.5 0.0 0.00 0.00 0.00 82
20260506160226 17 90 14.5 0.0 0.00 0.00 0.00 82 1004.0
20260506153802 17 70 8.0 0.0 0.00 0.00 0.00 77 1004.0
20260506153217 17 340 8.0 0.0 0.00 0.00 0.00 72 1005.0
20260506152025 17 350 8.0 0.0 0.00 0.00 0.00 72
20260506150225 17 20 4.8 0.0 0.00 0.00 0.00 88 1005.0
20260506145904 17 350 8.0 0.0 0.00 0.00 0.00 72 1004.0
20260506143224 20 350 4.8 0.0 0.00 0.00 0.00 60 1005.0
20260506141958 20 340 8.0 0.0 0.00 0.00 0.00 60
20260506141808 20 20 4.8 0.0 0.00 0.00 0.00 56 1005.0
20260506140225 20 310 9.7 0.0 0.00 0.00 0.00 56 1005.0
20260506133224 20 170 12.9 0.0 0.00 0.00 0.00 52 1005.0
20260506132307 21 0 9.7 0.0 0.00 0.00 0.00 49 1005.0
20260506131958 22 310 8.0 0.0 0.00 0.00 0.00 38
20260506131809 22 320 4.8 0.0 0.00 0.00 0.00 43 1005.0
20260506130219 22 260 11.3 0.0 0.00 0.00 0.00 40 1006.0
20260506123216 22 180 9.7 0.0 0.00 0.00 0.00 40 1006.0
20260506121957 23 210 8.0 0.0 0.00 0.00 0.00 36
20260506120225 22 0 8.0 0.0 0.00 0.00 0.00 43 1006.0
20260506113216 22 0 8.0 0.0 0.00 0.00 0.00 43 1006.0
20260506111943 22 190 8.0 0.0 0.00 0.00 0.00 40
20260506110218 20 260 11.3 0.0 0.00 0.00 0.00 49 1007.0
20260506103216 21 240 16.1 0.0 0.00 0.00 0.00 49 1007.0
20260506102144 21 240 19.3 0.0 0.00 0.00 0.00 46
20260506100221 20 220 20.9 0.0 0.00 0.00 0.00 49 1007.0
20260506093217 20 260 20.9 0.0 0.00 0.00 0.00 45 1007.0
20260506091943 20 260 22.5 0.0 0.00 0.00 0.00 45
20260506090220 18 230 22.5 0.0 0.00 0.00 0.00 52 1007.0
20260506083216 17 250 22.5 0.0 0.00 0.00 0.00 55 1007.0
20260506081941 17 250 22.5 0.0 0.00 0.00 0.00 55
20260506080227 18 250 20.9 0.0 0.00 0.00 0.00 55 1007.0
20260506073216 17 260 24.1 0.0 0.00 0.00 0.00 63 1007.0
20260506071943 17 260 22.5 0.0 0.00 0.00 0.00 63
20260506070226 17 250 20.9 0.0 0.00 0.00 0.00 63 1007.0
20260506061944 16 250 19.3 0.0 0.00 0.00 0.00 67
20260506060219 16 250 16.1 0.0 0.00 0.00 0.00 67 1007.0
20260506050225 15 250 12.9 0.0 0.00 0.00 0.00 77 1007.0
20260506043210 12 0 0.0 0.0 0.00 0.00 0.00 93 1006.0
20260506042142 12 240 3.2 0.0 0.00 0.00 0.00 87
20260506040220 12 260 3.2 0.0 0.00 0.00 0.00 87 1006.0